Dewpoint
70 70 70 70 70 70 71 72 71 71 71 71 71 71 70 71 71 71 70 71 70 70 69 70 70 69 70 70 70 69 69 69 69 68 68 68 68 68 68 68 67 67 67 67 67 67 67 67 68 68 67 69 69 64 62 62 62 64 64 64 65 64
70 70 70 70 70 70 70 70 70 70 70 70 70 71 70 69 71 69 70 69 67 70 68 68 69 70 70 70 69 69 69 69 68 68 68 68 68 67 67 67 67 67 67 66 66 63 65 67 67 67 68 68 66 64 62 62 63 63 64 64 65 66
69 69 69 69 69 68 68 68 69 69 69 70 70 70 68 68 66 66 66 67 67 66 66 68 68 69 70 69 69 69 69 69 68 68 68 67 67 67 66 66 66 66 65 66 63 62 62 62 61 66 67 65 65 63 62 63 63 64 63 64 64 67
68 68 68 68 68 67 67 67 68 68 68 68 68 68 67 66 65 65 65 65 65 66 66 67 70 70 70 69 68 69 69 68 68 67 67 69 68 67 67 67 66 66 67 65 61 61 62 61 60 60 62 64 64 62 62 63 63 64 65 66 65 67
68 68 68 68 67 67 67 66 66 66 66 67 66 66 65 65 65 65 66 66 66 66 66 67 68 68 68 68 67 67 68 67 67 67 68 65 64 64 65 64 63 64 62 62 62 61 60 60 60 61 62 63 64 62 62 63 64 65 65 65 66 67
67 67 68 67 67 67 66 66 65 65 66 66 66 65 65 65 65 66 66 67 66 65 66 66 66 66 67 66 66 66 66 66 66 65 66 64 64 64 63 64 64 64 64 62 61 61 60 62 61 61 62 62 63 62 62 63 64 64 65 65 66 68
66 67 67 67 67 67 66 65 65 65 65 65 65 65 65 65 65 65 66 67 66 65 65 65 65 65 65 65 65 65 65 64 64 64 65 64 63 64 64 63 63 64 62 62 61 61 61 60 61 61 61 62 63 63 63 63 64 64 65 65 67 68
66 67 67 67 66 66 66 65 65 67 64 66 66 65 65 64 65 66 66 66 67 66 65 65 64 64 64 64 65 65 65 64 63 63 64 64 62 63 63 63 64 63 63 62 61 61 61 59 61 62 61 62 62 63 64 63 64 64 64 64 66 67
66 67 67 66 65 66 66 65 66 65 64 68 64 64 65 65 65 66 66 66 67 65 65 65 64 64 64 64 64 64 64 64 63 64 64 63 63 63 62 63 63 64 63 62 62 61 60 61 62 61 61 62 62 63 64 64 64 64 64 64 65 67
66 66 66 66 65 65 65 65 64 64 65 67 64 65 65 65 65 65 65 66 66 65 64 64 64 63 64 64 64 64 64 63 63 63 64 64 63 63 62 62 62 63 63 62 61 61 60 61 61 61 60 61 62 63 63 64 64 64 65 64 65 66
67 67 66 66 65 65 65 64 64 64 65 65 64 66 65 65 65 65 65 66 66 66 65 64 64 63 64 64 64 64 63 63 63 63 63 63 64 65 63 63 63 63 62 62 61 61 60 61 62 62 62 61 62 62 63 64 65 65 65 65 65 65
67 67 66 66 65 65 64 64 64 65 65 64 65 65 65 65 67 65 65 65 65 65 66 64 64 64 64 64 64 64 64 64 64 64 64 64 64 64 64 64 65 64 63 62 62 61 61 61 61 62 63 63 64 63 64 64 65 65 65 64 64 64
67 66 65 65 65 65 65 65 64 64 65 65 65 65 65 65 65 65 65 65 65 65 65 65 64 65 66 64 64 63 63 64 65 65 64 64 65 64 65 64 64 63 63 62 62 61 61 61 61 62 62 63 64 64 64 64 64 64 64 64 64 64
66 65 65 65 65 65 65 65 65 65 66 65 65 65 65 65 65 65 65 65 65 65 65 64 64 64 64 63 62 62 62 63 64 65 64 64 64 63 64 64 63 63 64 62 61 60 61 61 62 62 62 63 63 63 64 64 64 64 64 64 64 63
66 65 66 65 65 64 65 65 65 65 65 65 65 65 64 64 65 65 65 64 65 65 65 65 64 64 62 62 62 62 62 63 65 64 64 64 64 63 64 64 63 62 62 62 61 61 61 61 62 62 62 63 63 64 63 63 64 64 64 63 63 63
66 65 65 65 64 64 64 64 64 66 65 65 65 65 64 65 65 64 64 64 64 64 65 65 64 63 62 62 62 62 63 64 65 64 64 63 63 63 63 63 62 62 61 61 61 60 60 61 62 62 63 63 63 63 62 63 64 64 64 64 63 63
65 65 65 65 64 64 64 64 64 66 65 65 65 65 65 65 65 65 64 65 64 65 64 64 64 63 62 62 62 62 62 64 64 64 63 62 62 63 63 62 62 62 61 61 61 61 60 61 62 62 62 62 63 62 62 63 63 64 64 63 62 62
64 65 65 65 64 64 65 65 65 65 66 65 65 65 65 65 65 65 65 65 65 65 64 64 64 63 62 63 63 62 63 64 64 63 62 62 62 61 62 63 62 62 62 61 61 60 61 61 62 62 62 62 62 62 62 62 63 65 63 63 63 62
64 65 65 65 65 65 64 64 63 64 64 64 64 64 65 65 65 65 65 65 65 65 65 64 64 64 63 63 63 62 63 63 63 63 62 62 62 63 62 61 61 61 62 61 61 60 61 61 62 62 62 62 62 62 62 63 63 63 62 63 63 63
64 65 64 64 64 64 63 63 63 62 62 62 62 64 64 65 64 64 64 65 65 64 65 64 64 63 63 63 62 62 63 63 63 63 62 62 61 62 62 60 60 61 61 61 61 61 61 61 61 61 61 61 62 62 63 62 62 62 62 63 63 63
64 64 64 63 63 63 62 61 60 62 62 62 62 62 64 63 63 63 64 65 65 64 64 65 64 63 63 64 62 62 62 62 62 63 62 61 60 61 60 60 60 60 59 59 60 60 60 60 59 58 59 59 60 61 62 62 62 62 62 62 63 63
64 63 63 63 62 62 61 61 61 61 60 61 61 61 61 61 62 63 63 63 64 64 64 64 64 63 64 63 62 62 62 62 62 62 61 61 60 62 60 61 61 60 59 58 58 60 60 59 57 57 57 57 59 60 61 61 62 62 62 62 61 62
63 63 62 62 62 61 61 61 61 60 60 59 60 61 60 61 63 62 62 63 63 63 64 64 64 64 63 63 63 62 62 61 61 62 61 60 60 60 60 62 60 60 59 59 59 60 59 58 57 57 57 56 55 55 56 57 59 61 62 60 61 62
63 63 62 62 62 62 62 61 61 60 59 58 57 59 59 60 61 61 61 62 62 63 63 64 64 64 63 63 62 62 62 62 62 62 61 61 60 59 60 60 60 59 59 59 57 59 60 60 58 57 54 53 54 55 53 53 56 59 61 62 61 61
63 63 63 63 63 61 61 59 59 58 58 57 57 58 58 58 58 60 59 59 61 62 63 63 62 63 64 63 62 62 61 61 62 61 61 61 61 61 60 60 60 60 59 58 57 58 59 60 59 59 56 54 52 52 52 53 56 56 58 58 60 62
63 63 63 63 62 61 60 59 58 55 54 54 55 56 56 57 58 58 57 58 60 60 62 62 62 62 62 62 62 62 61 62 61 61 62 61 61 61 60 60 61 61 59 57 58 57 57 58 59 60 58 57 54 52 54 55 53 51 55 57 58 61
63 63 63 61 60 60 58 58 56 54 54 54 54 55 56 58 58 58 58 57 57 58 61 62 61 61 61 61 60 61 61 61 62 61 62 61 61 61 62 62 62 60 59 59 57 56 57 57 58 59 60 60 60 57 57 55 50 52 50 51 52 57
63 63 62 61 60 59 58 58 55 54 54 54 54 54 56 57 58 58 57 57 56 57 59 60 60 60 61 60 60 60 60 60 61 62 62 61 60 60 62 62 62 61 60 59 58 57 57 58 58 58 59 58 58 58 57 55 54 52 51 51 51 52
63 62 61 60 59 60 60 59 57 57 57 56 54 55 56 57 57 57 56 56 56 56 57 57 58 58 58 59 61 60 60 60 60 61 62 61 60 61 60 61 61 60 60 58 58 57 58 58 58 58 57 56 58 57 56 55 53 51 50 49 48 50
62 61 61 60 60 60 60 59 58 58 58 56 54 54 55 56 56 56 56 55 55 55 55 56 56 57 58 59 58 58 58 58 59 60 61 60 60 60 60 60 61 61 60 59 58 58 58 58 58 58 58 57 56 55 54 53 52 51 51 49 49 48
61 61 61 60 60 59 59 59 58 59 57 53 53 53 53 53 55 55 55 54 54 55 56 56 56 56 57 58 58 59 57 58 59 60 60 60 60 60 60 60 61 61 60 59 58 58 57 58 58 58 57 57 57 56 54 51 51 50 50 48 48 47
60 60 60 60 59 59 59 58 59 58 55 53 52 52 51 53 54 55 54 54 54 55 54 54 54 55 56 56 57 56 56 56 57 57 58 58 58 59 59 60 60 60 60 59 59 59 58 57 57 58 57 57 56 55 54 53 53 52 50 49 47 46
59 59 60 59 59 58 58 58 59 58 56 54 53 51 51 53 54 54 54 55 54 54 54 53 53 53 54 55 56 55 54 53 54 56 57 58 58 58 58 59 59 59 59 59 59 58 58 57 57 58 58 57 57 56 56 56 55 53 51 50 48 45
59 59 59 58 58 58 57 58 58 58 58 55 53 52 52 54 54 54 56 55 54 55 54 53 52 52 54 56 56 56 55 54 54 55 56 56 57 57 58 59 58 58 58 57 57 57 57 56 56 56 56 57 56 56 56 57 55 53 51 49 47 45
59 59 59 58 57 57 57 57 58 58 58 55 54 53 53 55 55 55 56 55 55 56 55 53 54 54 55 56 55 53 52 52 53 54 55 56 56 56 56 58 57 57 57 57 57 57 57 57 57 56 56 56 57 57 57 57 55 53 52 49 47 46
59 59 58 58 57 57 57 57 57 57 57 56 56 55 55 55 55 56 55 55 56 56 55 55 55 56 55 54 54 53 54 54 54 54 54 54 54 55 55 56 55 56 56 58 56 56 56 57 56 56 56 55 56 56 56 57 56 56 52 51 49 47
59 59 58 57 57 57 57 57 57 57 57 56 55 54 54 55 55 55 56 56 56 55 54 55 55 55 54 54 54 53 53 52 53 53 53 53 53 53 53 53 53 53 52 51 52 51 51 53 53 55 54 55 55 55 56 55 55 55 55 53 50 46